Year,Month,Day,Hour,Minute,Value (Times are PST for temperature in C)
2014,05,29,00,01,12.70
2014,05,29,00,03,12.70
2014,05,29,00,04,12.70
2014,05,29,00,05,12.70
2014,05,29,00,06,12.70
2014,05,29,00,07,12.70
2014,05,29,00,08,12.70
2014,05,29,00,10,12.70
2014,05,29,00,11,12.70
2014,05,29,00,12,12.70
2014,05,29,00,13,12.70
2014,05,29,00,14,12.70
2014,05,29,00,16,12.70
2014,05,29,00,17,12.70
2014,05,29,00,19,12.70
2014,05,29,00,21,12.70
2014,05,29,00,22,12.60
2014,05,29,00,23,12.70
2014,05,29,00,25,12.60
2014,05,29,00,27,12.60
2014,05,29,00,29,12.60
2014,05,29,00,30,12.60
2014,05,29,00,31,12.60
2014,05,29,00,32,12.60
2014,05,29,00,34,12.60
2014,05,29,00,35,12.60
2014,05,29,00,37,12.60
2014,05,29,00,38,12.60
2014,05,29,00,40,12.60
2014,05,29,00,42,12.60
2014,05,29,00,43,12.60
2014,05,29,00,44,12.60
2014,05,29,00,45,12.60
2014,05,29,00,46,12.60
2014,05,29,00,48,12.60
2014,05,29,00,49,12.60
2014,05,29,00,54,12.60
2014,05,29,00,56,12.60
2014,05,29,00,57,12.60
2014,05,29,00,59,12.60
2014,05,29,01,00,12.60
2014,05,29,01,01,12.60
2014,05,29,01,04,12.60
2014,05,29,01,05,12.60
2014,05,29,01,06,12.60
2014,05,29,01,07,12.60
2014,05,29,01,08,12.60
2014,05,29,01,09,12.60
2014,05,29,01,11,12.60
2014,05,29,01,12,12.60
2014,05,29,01,13,12.60
2014,05,29,01,14,12.60
2014,05,29,01,16,12.60
2014,05,29,01,17,12.60
2014,05,29,01,18,12.60
2014,05,29,01,20,12.60
2014,05,29,01,21,12.60
2014,05,29,01,23,12.60
2014,05,29,01,24,12.60
2014,05,29,01,25,12.50
2014,05,29,01,26,12.60
2014,05,29,01,27,12.60
2014,05,29,01,28,12.60
2014,05,29,01,30,12.50
2014,05,29,01,31,12.50
2014,05,29,01,32,12.50
2014,05,29,01,33,12.50
2014,05,29,01,34,12.50
2014,05,29,01,36,12.50
2014,05,29,01,37,12.50
2014,05,29,01,39,12.50
2014,05,29,01,40,12.50
2014,05,29,01,41,12.50
2014,05,29,01,42,12.50
2014,05,29,01,43,12.50
2014,05,29,01,44,12.50
2014,05,29,01,45,12.60
2014,05,29,01,47,12.50
2014,05,29,01,48,12.50
2014,05,29,01,49,12.50
2014,05,29,01,50,12.50
2014,05,29,01,51,12.50
2014,05,29,01,53,12.50
2014,05,29,01,55,12.50
2014,05,29,01,56,12.50
2014,05,29,01,57,12.50
2014,05,29,01,58,12.50
2014,05,29,02,00,12.50
2014,05,29,02,01,12.50
2014,05,29,02,02,12.50
2014,05,29,02,04,12.50
2014,05,29,02,05,12.50
2014,05,29,02,06,12.50
2014,05,29,02,07,12.50
2014,05,29,02,08,12.50
2014,05,29,02,09,12.50
2014,05,29,02,10,12.50
2014,05,29,02,11,12.50
2014,05,29,02,12,12.50
2014,05,29,02,13,12.60
2014,05,29,02,14,12.50
2014,05,29,02,15,12.60
2014,05,29,02,16,12.60
2014,05,29,02,17,12.60
2014,05,29,02,18,12.50
2014,05,29,02,19,12.60
2014,05,29,02,20,12.60
2014,05,29,02,21,12.50
2014,05,29,02,22,12.50
2014,05,29,02,23,12.50
2014,05,29,02,25,12.50
2014,05,29,02,26,12.50
2014,05,29,02,28,12.60
2014,05,29,02,29,12.50
2014,05,29,02,30,12.50
2014,05,29,02,31,12.50
2014,05,29,02,33,12.60
2014,05,29,02,34,12.50
2014,05,29,02,35,12.60
2014,05,29,02,36,12.60
2014,05,29,02,37,12.50
2014,05,29,02,38,12.50
2014,05,29,02,39,12.60
2014,05,29,02,40,12.60
2014,05,29,02,41,12.60
2014,05,29,02,42,12.60
2014,05,29,02,44,12.60
2014,05,29,02,46,12.60
2014,05,29,02,47,12.60
2014,05,29,02,49,12.60
2014,05,29,02,50,12.60
2014,05,29,02,51,12.60
2014,05,29,02,52,12.60
2014,05,29,02,54,12.60
2014,05,29,02,55,12.60
2014,05,29,02,57,12.60
2014,05,29,02,58,12.60
2014,05,29,03,00,12.50
2014,05,29,03,01,12.50
2014,05,29,03,02,12.50
2014,05,29,03,04,12.50
2014,05,29,03,05,12.50
2014,05,29,03,06,12.60
2014,05,29,03,07,12.60
2014,05,29,03,08,12.50
2014,05,29,03,09,12.50
2014,05,29,03,10,12.50
2014,05,29,03,11,12.50
2014,05,29,03,13,12.50
2014,05,29,03,14,12.50
2014,05,29,03,16,12.50
2014,05,29,03,17,12.60
2014,05,29,03,18,12.50
2014,05,29,03,20,12.50
2014,05,29,03,22,12.50
2014,05,29,03,23,12.50
2014,05,29,03,25,12.40
2014,05,29,03,26,12.40
2014,05,29,03,27,12.40
2014,05,29,03,29,12.40
2014,05,29,03,30,12.40
2014,05,29,03,31,12.40
2014,05,29,03,32,12.40
2014,05,29,03,33,12.40
2014,05,29,03,34,12.40
2014,05,29,03,36,12.40
2014,05,29,03,37,12.40
2014,05,29,03,38,12.40
2014,05,29,03,40,12.40
2014,05,29,03,41,12.40
2014,05,29,03,42,12.40
2014,05,29,03,43,12.40
2014,05,29,03,45,12.40
2014,05,29,03,46,12.40
2014,05,29,03,47,12.40
2014,05,29,03,48,12.40
2014,05,29,03,49,12.40
2014,05,29,03,50,12.40
2014,05,29,03,51,12.40
2014,05,29,03,52,12.40
2014,05,29,03,53,12.40
2014,05,29,03,54,12.40
2014,05,29,03,55,12.40
2014,05,29,03,57,12.40
2014,05,29,03,58,12.40
2014,05,29,03,59,12.40
2014,05,29,04,01,12.40
2014,05,29,04,02,12.30
2014,05,29,04,04,12.40
2014,05,29,04,05,12.30
2014,05,29,04,06,12.30
2014,05,29,04,07,12.30
2014,05,29,04,08,12.30
2014,05,29,04,09,12.30
2014,05,29,04,11,12.30
2014,05,29,04,12,12.30
2014,05,29,04,14,12.30
2014,05,29,04,15,12.30
2014,05,29,04,17,12.30
2014,05,29,04,18,12.30
2014,05,29,04,19,12.30
2014,05,29,04,20,12.30
2014,05,29,04,21,12.30
2014,05,29,04,22,12.30
2014,05,29,04,23,12.30
2014,05,29,04,24,12.30
2014,05,29,04,25,12.30
2014,05,29,04,27,12.30
2014,05,29,04,29,12.30
2014,05,29,04,30,12.30
2014,05,29,04,32,12.30
2014,05,29,04,33,12.30
2014,05,29,04,34,12.30
2014,05,29,04,35,12.30
2014,05,29,04,36,12.30
2014,05,29,04,37,12.30
2014,05,29,04,39,12.30
2014,05,29,04,40,12.30
2014,05,29,04,42,12.30
2014,05,29,04,43,12.30
2014,05,29,04,45,12.30
2014,05,29,04,47,12.30
2014,05,29,04,48,12.30
2014,05,29,04,50,12.30
2014,05,29,04,51,12.30
2014,05,29,04,52,12.30
2014,05,29,04,54,12.30
2014,05,29,04,55,12.30
2014,05,29,04,56,12.30
2014,05,29,04,57,12.30
2014,05,29,04,58,12.30
2014,05,29,04,59,12.30
2014,05,29,05,01,12.30
2014,05,29,05,02,12.30
2014,05,29,05,03,12.30
2014,05,29,05,04,12.30
2014,05,29,05,05,12.30
2014,05,29,05,06,12.30
2014,05,29,05,07,12.30
2014,05,29,05,08,12.30
2014,05,29,05,09,12.30
2014,05,29,05,10,12.30
2014,05,29,05,11,12.30
2014,05,29,05,12,12.30
2014,05,29,05,13,12.30
2014,05,29,05,15,12.30
2014,05,29,05,17,12.30
2014,05,29,05,19,12.30
2014,05,29,05,20,12.30
2014,05,29,05,21,12.30
2014,05,29,05,22,12.30
2014,05,29,05,23,12.30
2014,05,29,05,25,12.20
2014,05,29,05,27,12.20
2014,05,29,05,28,12.20
2014,05,29,05,29,12.20
2014,05,29,05,31,12.20
2014,05,29,05,32,12.30
2014,05,29,05,34,12.30
2014,05,29,05,35,12.30
2014,05,29,05,36,12.30
2014,05,29,05,38,12.30
2014,05,29,05,39,12.30
2014,05,29,05,41,12.30
2014,05,29,05,42,12.30
2014,05,29,05,43,12.30
2014,05,29,05,44,12.30
2014,05,29,05,45,12.30
2014,05,29,05,46,12.30
2014,05,29,05,47,12.30
2014,05,29,05,48,12.30
2014,05,29,05,50,12.30
2014,05,29,05,51,12.30
2014,05,29,05,52,12.30
2014,05,29,05,54,12.30
2014,05,29,05,56,12.30
2014,05,29,05,57,12.30
2014,05,29,05,58,12.30
2014,05,29,05,59,12.30
2014,05,29,06,00,12.30
2014,05,29,06,02,12.30
2014,05,29,06,03,12.30
2014,05,29,06,04,12.30
2014,05,29,06,05,12.30
2014,05,29,06,06,12.30
2014,05,29,06,07,12.30
2014,05,29,06,08,12.30
2014,05,29,06,09,12.30
2014,05,29,06,10,12.30
2014,05,29,06,11,12.30
2014,05,29,06,12,12.30
2014,05,29,06,13,12.30
2014,05,29,06,14,12.30
2014,05,29,06,16,12.30
2014,05,29,06,17,12.30
2014,05,29,06,18,12.30
2014,05,29,06,20,12.30
2014,05,29,06,21,12.30
2014,05,29,06,22,12.30
2014,05,29,06,24,12.30
2014,05,29,06,25,12.30
2014,05,29,06,27,12.30
2014,05,29,06,28,12.30
2014,05,29,06,30,12.30
2014,05,29,06,31,12.30
2014,05,29,06,32,12.30
2014,05,29,06,34,12.30
2014,05,29,06,36,12.30
2014,05,29,06,37,12.30
2014,05,29,06,38,12.30
2014,05,29,06,39,12.30
2014,05,29,06,41,12.30
2014,05,29,06,42,12.30
2014,05,29,06,43,12.30
2014,05,29,06,44,12.30
2014,05,29,06,45,12.30
2014,05,29,06,47,12.30
2014,05,29,06,48,12.30
2014,05,29,06,50,12.30
2014,05,29,06,52,12.30
2014,05,29,06,53,12.30
2014,05,29,06,55,12.30
2014,05,29,06,56,12.30
2014,05,29,06,58,12.30
2014,05,29,06,59,12.30
2014,05,29,07,01,12.40
2014,05,29,07,02,12.40
2014,05,29,07,03,12.40
2014,05,29,07,04,12.40
2014,05,29,07,05,12.40
2014,05,29,07,06,12.40
2014,05,29,07,07,12.40
2014,05,29,07,08,12.40
2014,05,29,07,09,12.40
2014,05,29,07,11,12.40
2014,05,29,07,12,12.40
2014,05,29,07,13,12.40
2014,05,29,07,14,12.40
2014,05,29,07,16,12.40
2014,05,29,07,17,12.40
2014,05,29,07,18,12.40
2014,05,29,07,19,12.50
2014,05,29,07,21,12.50
2014,05,29,07,22,12.50
2014,05,29,07,23,12.50
2014,05,29,07,25,12.50
2014,05,29,07,26,12.50
2014,05,29,07,28,12.50
2014,05,29,07,29,12.50
2014,05,29,07,30,12.50
2014,05,29,07,32,12.50
2014,05,29,07,33,12.50
2014,05,29,07,35,12.50
2014,05,29,07,36,12.50
2014,05,29,07,38,12.50
2014,05,29,07,39,12.50
2014,05,29,07,40,12.50
2014,05,29,07,42,12.50
2014,05,29,07,43,12.50
2014,05,29,07,44,12.50
2014,05,29,07,46,12.50
2014,05,29,07,47,12.60
2014,05,29,07,48,12.60
2014,05,29,07,50,12.60
2014,05,29,07,51,12.60
2014,05,29,07,53,12.60
2014,05,29,07,54,12.60
2014,05,29,07,55,12.60
2014,05,29,07,56,12.50
2014,05,29,07,57,12.50
2014,05,29,07,58,12.50
2014,05,29,07,59,12.50
2014,05,29,08,01,12.50
2014,05,29,08,02,12.40
2014,05,29,08,03,12.50
2014,05,29,08,04,12.50
2014,05,29,08,05,12.50
2014,05,29,08,06,12.40
2014,05,29,08,07,12.40
2014,05,29,08,08,12.40
2014,05,29,08,09,12.40
2014,05,29,08,12,12.40
2014,05,29,08,14,12.40
2014,05,29,08,15,12.40
2014,05,29,08,17,12.40
2014,05,29,08,18,12.40
2014,05,29,08,19,12.40
2014,05,29,08,20,12.40
2014,05,29,08,21,12.40
2014,05,29,08,22,12.40
2014,05,29,08,24,12.40
2014,05,29,08,26,12.40
2014,05,29,08,27,12.40
2014,05,29,08,28,12.40
2014,05,29,08,30,12.40
2014,05,29,08,31,12.40
2014,05,29,08,32,12.40
2014,05,29,08,33,12.40
2014,05,29,08,35,12.40
2014,05,29,08,36,12.40
2014,05,29,08,37,12.40
2014,05,29,08,39,12.40
2014,05,29,08,40,12.40
2014,05,29,08,41,12.40
2014,05,29,08,42,12.40
2014,05,29,08,44,12.50
2014,05,29,08,45,12.50
2014,05,29,08,46,12.50
2014,05,29,08,47,12.60
2014,05,29,08,49,12.60
2014,05,29,08,50,12.60
2014,05,29,08,51,12.60
2014,05,29,08,52,12.60
2014,05,29,08,53,12.60
2014,05,29,08,54,12.70
2014,05,29,08,56,12.70
2014,05,29,08,57,12.70
2014,05,29,08,59,12.70
2014,05,29,09,00,12.70
2014,05,29,09,01,12.80
2014,05,29,09,03,12.80
2014,05,29,09,04,12.80
2014,05,29,09,05,12.80
2014,05,29,09,06,12.80
2014,05,29,09,07,12.80
2014,05,29,09,08,12.80
2014,05,29,09,09,12.80
2014,05,29,09,10,12.80
2014,05,29,09,11,12.80
2014,05,29,09,12,12.80
2014,05,29,09,13,12.90
2014,05,29,09,14,12.90
2014,05,29,09,15,12.90
2014,05,29,09,17,12.90
2014,05,29,09,18,12.90
2014,05,29,09,20,12.90
2014,05,29,09,22,12.90
2014,05,29,09,23,12.90
2014,05,29,09,24,12.90
2014,05,29,09,25,12.90
2014,05,29,09,26,12.90
2014,05,29,09,28,12.90
2014,05,29,09,29,12.90
2014,05,29,09,30,12.90
2014,05,29,09,31,12.90
2014,05,29,09,33,13.00
2014,05,29,09,34,13.00
2014,05,29,09,35,13.00
2014,05,29,09,36,13.00
2014,05,29,09,37,13.00
2014,05,29,09,38,13.00
2014,05,29,09,39,13.00
2014,05,29,09,41,13.00
2014,05,29,09,42,13.00
2014,05,29,09,44,13.00
2014,05,29,09,45,13.00
2014,05,29,09,46,13.00
2014,05,29,09,47,13.00
2014,05,29,09,48,13.00
2014,05,29,09,49,13.00
2014,05,29,09,50,13.10
2014,05,29,09,51,13.00
2014,05,29,09,52,13.00
2014,05,29,09,53,13.00
2014,05,29,09,54,13.10
2014,05,29,09,55,13.00
2014,05,29,09,56,13.10
2014,05,29,09,57,13.10
2014,05,29,09,58,13.10
2014,05,29,09,59,13.10
2014,05,29,10,00,13.10
2014,05,29,10,01,13.10
2014,05,29,10,02,13.10
2014,05,29,10,04,13.10
2014,05,29,10,05,13.10
2014,05,29,10,06,13.10
2014,05,29,10,07,13.10
2014,05,29,10,08,13.20
2014,05,29,10,09,13.20
2014,05,29,10,10,13.20
2014,05,29,10,12,13.20
2014,05,29,10,13,13.20
2014,05,29,10,14,13.20
2014,05,29,10,16,13.20
2014,05,29,10,18,13.30
2014,05,29,10,19,13.30
2014,05,29,10,20,13.30
2014,05,29,10,21,13.30
2014,05,29,10,22,13.30
2014,05,29,10,23,13.30
2014,05,29,10,25,13.30
2014,05,29,10,27,13.30
2014,05,29,10,28,13.30
2014,05,29,10,29,13.30
2014,05,29,10,31,13.30
2014,05,29,10,32,13.30
2014,05,29,10,33,13.30
2014,05,29,10,34,13.30
2014,05,29,10,35,13.30
2014,05,29,10,37,13.40
2014,05,29,10,38,13.40
2014,05,29,10,39,13.40
2014,05,29,10,41,13.30
2014,05,29,10,42,13.30
2014,05,29,10,43,13.30
2014,05,29,10,44,13.30
2014,05,29,10,45,13.30
2014,05,29,10,46,13.30
2014,05,29,10,48,13.30
2014,05,29,10,49,13.30
2014,05,29,10,51,13.30
2014,05,29,10,52,13.30
2014,05,29,10,54,13.30
2014,05,29,10,55,13.30
2014,05,29,10,57,13.30
2014,05,29,10,58,13.40
2014,05,29,11,00,13.40
2014,05,29,11,01,13.40
2014,05,29,11,03,13.40
2014,05,29,11,04,13.40
2014,05,29,11,05,13.40
2014,05,29,11,07,13.50
2014,05,29,11,08,13.50
2014,05,29,11,09,13.50
2014,05,29,11,10,13.60
2014,05,29,11,11,13.60
2014,05,29,11,12,13.60
2014,05,29,11,13,13.60
2014,05,29,11,15,13.70
2014,05,29,11,17,13.70
2014,05,29,11,18,13.70
2014,05,29,11,19,13.70
2014,05,29,11,21,13.70
2014,05,29,11,22,13.80
2014,05,29,11,23,13.80
2014,05,29,11,25,13.80
2014,05,29,11,26,13.80
2014,05,29,11,27,13.80
2014,05,29,11,28,13.90
2014,05,29,11,29,13.90
2014,05,29,11,31,13.90
2014,05,29,11,32,14.00
2014,05,29,11,34,14.00
2014,05,29,11,35,14.00
2014,05,29,11,36,14.00
2014,05,29,11,38,14.00
2014,05,29,11,39,14.10
2014,05,29,11,40,14.10
2014,05,29,11,41,14.10
2014,05,29,11,42,14.10
2014,05,29,11,43,14.10
2014,05,29,11,44,14.10
2014,05,29,11,45,14.10
2014,05,29,11,46,14.10
2014,05,29,11,48,14.20
2014,05,29,11,50,14.20
2014,05,29,11,51,14.20
2014,05,29,11,53,14.30
2014,05,29,11,54,14.30
2014,05,29,11,56,14.40
2014,05,29,11,57,14.40
2014,05,29,11,58,14.50
2014,05,29,11,59,14.50
2014,05,29,12,01,14.60
2014,05,29,12,03,14.70
2014,05,29,12,04,14.80
2014,05,29,12,05,14.80
2014,05,29,12,06,14.80
2014,05,29,12,07,14.80
2014,05,29,12,08,14.80
2014,05,29,12,09,14.80
2014,05,29,12,10,14.80
2014,05,29,12,11,14.80
2014,05,29,12,12,14.80
2014,05,29,12,13,14.80
2014,05,29,12,14,14.80
2014,05,29,12,16,14.80
2014,05,29,12,17,14.90
2014,05,29,12,19,15.00
2014,05,29,12,20,15.10
2014,05,29,12,22,15.20
2014,05,29,12,24,15.30
2014,05,29,12,25,15.40
2014,05,29,12,26,15.60
2014,05,29,12,28,15.70
2014,05,29,12,29,15.80
2014,05,29,12,30,15.80
2014,05,29,12,32,15.80
2014,05,29,12,33,15.80
2014,05,29,12,34,15.80
2014,05,29,12,35,15.80
2014,05,29,12,36,15.80
2014,05,29,12,37,15.80
2014,05,29,12,38,15.90
2014,05,29,12,39,15.90
2014,05,29,12,40,15.80
2014,05,29,12,42,15.80
2014,05,29,12,43,15.80
2014,05,29,12,45,15.70
2014,05,29,12,46,15.70
2014,05,29,12,47,15.70
2014,05,29,12,48,15.60
2014,05,29,12,49,15.60
2014,05,29,12,50,15.60
2014,05,29,12,52,15.60
2014,05,29,12,53,15.60
2014,05,29,12,54,15.60
2014,05,29,12,55,15.40
2014,05,29,12,56,15.40
2014,05,29,12,57,15.40
2014,05,29,12,58,15.30
2014,05,29,12,59,15.30
2014,05,29,13,01,15.40
2014,05,29,13,03,15.40
2014,05,29,13,04,15.50
2014,05,29,13,05,15.40
2014,05,29,13,06,15.50
2014,05,29,13,07,15.50
2014,05,29,13,08,15.50
2014,05,29,13,09,15.40
2014,05,29,13,11,15.40
2014,05,29,13,12,15.40
2014,05,29,13,13,15.40
2014,05,29,13,15,15.50
2014,05,29,13,17,15.50
2014,05,29,13,18,15.60
2014,05,29,13,19,15.50
2014,05,29,13,20,15.60
2014,05,29,13,21,15.60
2014,05,29,13,23,15.70
2014,05,29,13,24,15.70
2014,05,29,13,25,15.70
2014,05,29,13,27,15.60
2014,05,29,13,28,15.60
2014,05,29,13,29,15.60
2014,05,29,13,30,15.60
2014,05,29,13,32,15.60
2014,05,29,13,33,15.60
2014,05,29,13,35,15.60
2014,05,29,13,36,15.60
2014,05,29,13,37,15.60
2014,05,29,13,38,15.60
2014,05,29,13,40,15.60
2014,05,29,13,41,15.60
2014,05,29,13,42,15.60
2014,05,29,13,43,15.60
2014,05,29,13,45,15.60
2014,05,29,13,47,15.70
2014,05,29,13,48,15.60
2014,05,29,13,49,15.60
2014,05,29,13,50,15.70
2014,05,29,13,51,15.80
2014,05,29,13,53,15.80
2014,05,29,13,54,15.80
2014,05,29,13,55,15.80
2014,05,29,13,57,15.80
2014,05,29,13,58,15.90
2014,05,29,13,59,15.90
2014,05,29,14,00,15.90
2014,05,29,14,01,15.90
2014,05,29,14,02,15.90
2014,05,29,14,04,15.80
2014,05,29,14,05,15.80
2014,05,29,14,06,15.80
2014,05,29,14,07,15.80
2014,05,29,14,08,15.80
2014,05,29,14,09,15.80
2014,05,29,14,10,15.90
2014,05,29,14,12,15.90
2014,05,29,14,13,15.80
2014,05,29,14,14,15.80
2014,05,29,14,15,15.80
2014,05,29,14,16,15.70
2014,05,29,14,18,15.90
2014,05,29,14,20,15.90
2014,05,29,14,21,15.90
2014,05,29,14,22,15.80
2014,05,29,14,23,15.80
2014,05,29,14,24,15.90
2014,05,29,14,25,15.90
2014,05,29,14,27,15.90
2014,05,29,14,29,15.90
2014,05,29,14,31,16.00
2014,05,29,14,32,16.10
2014,05,29,14,33,16.10
2014,05,29,14,34,16.10
2014,05,29,14,35,16.10
2014,05,29,14,36,16.10
2014,05,29,14,37,16.00
2014,05,29,14,39,15.80
2014,05,29,14,40,15.80
2014,05,29,14,41,15.70
2014,05,29,14,43,15.50
2014,05,29,14,44,15.40
2014,05,29,14,45,15.40
2014,05,29,14,47,15.40
2014,05,29,14,48,15.50
2014,05,29,14,49,15.50
2014,05,29,14,50,15.60
2014,05,29,14,51,15.60
2014,05,29,14,52,15.50
2014,05,29,14,54,15.40
2014,05,29,14,55,15.40
2014,05,29,14,56,15.40
2014,05,29,14,58,15.30
2014,05,29,14,59,15.30
2014,05,29,15,00,15.40
2014,05,29,15,02,15.40
2014,05,29,15,04,15.40
2014,05,29,15,05,15.40
2014,05,29,15,06,15.40
2014,05,29,15,07,15.40
2014,05,29,15,08,15.40
2014,05,29,15,09,15.40
2014,05,29,15,10,15.40
2014,05,29,15,12,15.40
2014,05,29,15,13,15.40
2014,05,29,15,14,15.40
2014,05,29,15,15,15.40
2014,05,29,15,16,15.40
2014,05,29,15,17,15.40
2014,05,29,15,19,15.30
2014,05,29,15,20,15.40
2014,05,29,15,21,15.40
2014,05,29,15,22,15.40
2014,05,29,15,23,15.30
2014,05,29,15,24,15.30
2014,05,29,15,26,15.30
2014,05,29,15,27,15.20
2014,05,29,15,28,15.20
2014,05,29,15,29,15.20
2014,05,29,15,30,15.20
2014,05,29,15,31,15.20
2014,05,29,15,33,15.20
2014,05,29,15,34,15.20
2014,05,29,15,35,15.20
2014,05,29,15,37,15.30
2014,05,29,15,38,15.40
2014,05,29,15,39,15.40
2014,05,29,15,40,15.40
2014,05,29,15,41,15.50
2014,05,29,15,42,15.60
2014,05,29,15,43,15.50
2014,05,29,15,45,15.50
2014,05,29,15,47,15.40
2014,05,29,15,48,15.40
2014,05,29,15,49,15.40
2014,05,29,15,50,15.30
2014,05,29,15,51,15.20
2014,05,29,15,53,15.20
2014,05,29,15,55,15.10
2014,05,29,15,56,15.10
2014,05,29,15,57,15.10
2014,05,29,15,58,15.10
2014,05,29,15,59,15.00
2014,05,29,16,00,15.00
2014,05,29,16,02,15.00
2014,05,29,16,03,15.10
2014,05,29,16,04,15.10
2014,05,29,16,05,15.10
2014,05,29,16,06,15.10
2014,05,29,16,07,15.00
2014,05,29,16,08,15.00
2014,05,29,16,09,15.10
2014,05,29,16,10,15.10
2014,05,29,16,12,15.00
2014,05,29,16,13,14.90
2014,05,29,16,15,14.90
2014,05,29,16,16,14.90
2014,05,29,16,17,14.90
2014,05,29,16,18,14.90
2014,05,29,16,19,14.90
2014,05,29,16,21,14.90
2014,05,29,16,22,14.90
2014,05,29,16,23,14.90
2014,05,29,16,24,14.90
2014,05,29,16,26,14.80
2014,05,29,16,27,14.80
2014,05,29,16,29,14.80
2014,05,29,16,30,14.80
2014,05,29,16,31,14.80
2014,05,29,16,33,14.80
2014,05,29,16,34,14.80
2014,05,29,16,35,14.80
2014,05,29,16,36,14.70
2014,05,29,16,38,14.70
2014,05,29,16,40,14.60
2014,05,29,16,41,14.60
2014,05,29,16,42,14.60
2014,05,29,16,43,14.60
2014,05,29,16,45,14.60
2014,05,29,16,47,14.70
2014,05,29,16,48,14.60
2014,05,29,16,50,14.60
2014,05,29,16,51,14.60
2014,05,29,16,53,14.60
2014,05,29,16,55,14.60
2014,05,29,16,56,14.60
2014,05,29,16,58,14.60
2014,05,29,16,59,14.50
2014,05,29,17,00,14.50
2014,05,29,17,01,14.60
2014,05,29,17,03,14.60
2014,05,29,17,04,14.60
2014,05,29,17,05,14.60
2014,05,29,17,06,14.60
2014,05,29,17,07,14.60
2014,05,29,17,08,14.60
2014,05,29,17,09,14.60
2014,05,29,17,10,14.60
2014,05,29,17,11,14.60
2014,05,29,17,12,14.60
2014,05,29,17,14,14.50
2014,05,29,17,15,14.40
2014,05,29,17,17,14.40
2014,05,29,17,19,14.40
2014,05,29,17,20,14.40
2014,05,29,17,21,14.40
2014,05,29,17,22,14.50
2014,05,29,17,24,14.50
2014,05,29,17,25,14.50
2014,05,29,17,27,14.60
2014,05,29,17,28,14.50
2014,05,29,17,29,14.50
2014,05,29,17,31,14.50
2014,05,29,17,32,14.50
2014,05,29,17,33,14.50
2014,05,29,17,35,14.50
2014,05,29,17,36,14.50
2014,05,29,17,37,14.60
2014,05,29,17,39,14.60
2014,05,29,17,40,14.60
2014,05,29,17,42,14.60
2014,05,29,17,43,14.60
2014,05,29,17,44,14.60
2014,05,29,17,45,14.60
2014,05,29,17,47,14.60
2014,05,29,17,48,14.60
2014,05,29,17,50,14.60
2014,05,29,17,52,14.60
2014,05,29,17,53,14.60
2014,05,29,17,54,14.60
2014,05,29,17,55,14.60
2014,05,29,17,57,14.70
2014,05,29,17,58,14.70
2014,05,29,17,59,14.70
2014,05,29,18,00,14.70
2014,05,29,18,01,14.70
2014,05,29,18,03,14.80
2014,05,29,18,04,14.80
2014,05,29,18,05,14.80
2014,05,29,18,06,14.80
2014,05,29,18,07,14.80
2014,05,29,18,08,14.80
2014,05,29,18,09,14.70
2014,05,29,18,10,14.70
2014,05,29,18,11,14.70
2014,05,29,18,12,14.70
2014,05,29,18,13,14.70
2014,05,29,18,14,14.70
2014,05,29,18,15,14.70
2014,05,29,18,17,14.70
2014,05,29,18,18,14.70
2014,05,29,18,19,14.70
2014,05,29,18,21,14.70
2014,05,29,18,23,14.60
2014,05,29,18,24,14.60
2014,05,29,18,25,14.60
2014,05,29,18,26,14.60
2014,05,29,18,27,14.60
2014,05,29,18,28,14.60
2014,05,29,18,29,14.60
2014,05,29,18,30,14.60
2014,05,29,18,31,14.60
2014,05,29,18,32,14.60
2014,05,29,18,34,14.50
2014,05,29,18,35,14.50
2014,05,29,18,36,14.50
2014,05,29,18,37,14.60
2014,05,29,18,38,14.60
2014,05,29,18,39,14.60
2014,05,29,18,40,14.50
2014,05,29,18,41,14.50
2014,05,29,18,42,14.50
2014,05,29,18,43,14.40
2014,05,29,18,44,14.40
2014,05,29,18,45,14.40
2014,05,29,18,46,14.40
2014,05,29,18,47,14.40
2014,05,29,18,48,14.40
2014,05,29,18,49,14.40
2014,05,29,18,50,14.40
2014,05,29,18,51,14.40
2014,05,29,18,52,14.30
2014,05,29,18,53,14.30
2014,05,29,18,54,14.30
2014,05,29,18,55,14.30
2014,05,29,18,56,14.30
2014,05,29,18,57,14.30
2014,05,29,18,58,14.30
2014,05,29,18,59,14.20
2014,05,29,19,00,14.20
2014,05,29,19,01,14.20
2014,05,29,19,03,14.20
2014,05,29,19,04,14.20
2014,05,29,19,05,14.20
2014,05,29,19,06,14.20
2014,05,29,19,07,14.20
2014,05,29,19,08,14.20
2014,05,29,19,09,14.20
2014,05,29,19,10,14.20
2014,05,29,19,11,14.20
2014,05,29,19,12,14.20
2014,05,29,19,13,14.10
2014,05,29,19,15,14.10
2014,05,29,19,16,14.10
2014,05,29,19,18,14.10
2014,05,29,19,19,14.20
2014,05,29,19,20,14.10
2014,05,29,19,21,14.20
2014,05,29,19,22,14.20
2014,05,29,19,23,14.20
2014,05,29,19,24,14.20
2014,05,29,19,25,14.20
2014,05,29,19,26,14.10
2014,05,29,19,28,14.10
2014,05,29,19,29,14.10
2014,05,29,19,30,14.10
2014,05,29,19,31,14.10
2014,05,29,19,33,14.10
2014,05,29,19,34,14.10
2014,05,29,19,36,14.10
2014,05,29,19,37,14.00
2014,05,29,19,39,14.00
2014,05,29,19,41,14.00
2014,05,29,19,43,14.00
2014,05,29,19,44,14.00
2014,05,29,19,45,14.00
2014,05,29,19,46,14.00
2014,05,29,19,47,14.00
2014,05,29,19,48,14.00
2014,05,29,19,50,13.90
2014,05,29,19,51,13.90
2014,05,29,19,52,13.90
2014,05,29,19,53,13.90
2014,05,29,19,55,13.90
2014,05,29,19,56,13.80
2014,05,29,19,57,13.80
2014,05,29,19,59,13.80
2014,05,29,20,00,13.80
2014,05,29,20,01,13.80
2014,05,29,20,03,13.80
2014,05,29,20,04,13.80
2014,05,29,20,05,13.80
2014,05,29,20,06,13.80
2014,05,29,20,07,13.80
2014,05,29,20,08,13.80
2014,05,29,20,09,13.80
2014,05,29,20,11,13.80
2014,05,29,20,13,13.70
2014,05,29,20,14,13.70
2014,05,29,20,15,13.70
2014,05,29,20,17,13.70
2014,05,29,20,18,13.70
2014,05,29,20,19,13.70
2014,05,29,20,21,13.70
2014,05,29,20,23,13.60
2014,05,29,20,24,13.60
2014,05,29,20,26,13.60
2014,05,29,20,28,13.60
2014,05,29,20,29,13.60
2014,05,29,20,31,13.60
2014,05,29,20,32,13.60
2014,05,29,20,33,13.60
2014,05,29,20,34,13.50
2014,05,29,20,35,13.50
2014,05,29,20,37,13.40
2014,05,29,20,38,13.40
2014,05,29,20,39,13.40
2014,05,29,20,40,13.40
2014,05,29,20,41,13.30
2014,05,29,20,42,13.30
2014,05,29,20,43,13.30
2014,05,29,20,44,13.30
2014,05,29,20,45,13.30
2014,05,29,20,47,13.30
2014,05,29,20,48,13.30
2014,05,29,20,50,13.20
2014,05,29,20,51,13.20
2014,05,29,20,53,13.20
2014,05,29,20,54,13.20
2014,05,29,20,55,13.20
2014,05,29,20,56,13.20
2014,05,29,20,57,13.20
2014,05,29,20,59,13.20
2014,05,29,21,00,13.20
2014,05,29,21,01,13.20
2014,05,29,21,02,13.20
2014,05,29,21,04,13.20
2014,05,29,21,05,13.20
2014,05,29,21,06,13.20
2014,05,29,21,07,13.20
2014,05,29,21,08,13.20
2014,05,29,21,09,13.20
2014,05,29,21,10,13.20
2014,05,29,21,11,13.20
2014,05,29,21,12,13.20
2014,05,29,21,13,13.20
2014,05,29,21,15,13.20
2014,05,29,21,17,13.20
2014,05,29,21,18,13.20
2014,05,29,21,19,13.20
2014,05,29,21,20,13.20
2014,05,29,21,21,13.20
2014,05,29,21,22,13.20
2014,05,29,21,24,13.20
2014,05,29,21,26,13.20
2014,05,29,21,27,13.10
2014,05,29,21,29,13.10
2014,05,29,21,30,13.10
2014,05,29,21,31,13.10
2014,05,29,21,32,13.10
2014,05,29,21,33,13.10
2014,05,29,21,34,13.10
2014,05,29,21,36,13.10
2014,05,29,21,37,13.00
2014,05,29,21,38,13.10
2014,05,29,21,39,13.00
2014,05,29,21,41,13.00
2014,05,29,21,42,13.00
2014,05,29,21,44,13.00
2014,05,29,21,45,13.00
2014,05,29,21,46,12.90
2014,05,29,21,47,12.90
2014,05,29,21,48,12.90
2014,05,29,21,50,12.90
2014,05,29,21,51,12.90
2014,05,29,21,52,12.90
2014,05,29,21,54,12.90
2014,05,29,21,55,12.90